This is the latest recevied weather packets stored in our database for station/object IT9CNT. If no packets are shown the sender has not sent any weather packets the latest 1 day(s).
| Time | Temp. | Humidity | Pressure | Rain* | Wind** | Luminosity | Snow |
|---|---|---|---|---|---|---|---|
| 1778042463 | 15.56° C | 74% | 1011.7 hPa | 0 mm | 2.68 m/s, 69° | - | - |
| 1778042403 | 15.56° C | 74% | 1011.8 hPa | 0 mm | 2.68 m/s, 69° | - | - |
| 1778042283 | 15.56° C | 74% | 1011.8 hPa | 0 mm | 2.68 m/s, 84° | - | - |
| 1778042223 | 15.56° C | 74% | 1011.9 hPa | 0 mm | 2.68 m/s, 88° | - | - |
| 1778042163 | 15.56° C | 74% | 1011.6 hPa | 0 mm | 2.68 m/s, 85° | - | - |
| 1778042103 | 15.56° C | 74% | 1011.7 hPa | 0 mm | 2.68 m/s, 89° | - | - |
| 1778042044 | 15.56° C | 74% | 1011.5 hPa | 0 mm | 2.68 m/s, 91° | - | - |
| 1778041983 | 15.56° C | 74% | 1011.7 hPa | 0 mm | 2.68 m/s, 93° | - | - |
| 1778041923 | 15.56° C | 75% | 1011.8 hPa | 0 mm | 2.68 m/s, 90° | - | - |
| 1778041863 | 15.56° C | 75% | 1011.7 hPa | 0 mm | 2.68 m/s, 89° | - | - |
| 1778041804 | 15.56° C | 75% | 1011.9 hPa | 0 mm | 2.68 m/s, 97° | - | - |
| 1778041743 | 15.56° C | 75% | 1011.8 hPa | 0 mm | 2.68 m/s, 94° | - | - |
| 1778041683 | 15.56° C | 75% | 1011.7 hPa | 0 mm | 2.68 m/s, 90° | - | - |
| 1778041623 | 15.56° C | 75% | 1011.7 hPa | 0 mm | 2.68 m/s, 84° | - | - |
| 1778041563 | 15.56° C | 75% | 1011.7 hPa | 0 mm | 2.68 m/s, 85° | - | - |
| 1778041503 | 15.56° C | 75% | 1012 hPa | 0 mm | 2.68 m/s, 90° | - | - |
| 1778041443 | 15.56° C | 75% | 1011.8 hPa | 0 mm | 2.68 m/s, 91° | - | - |
| 1778041383 | 15.56° C | 75% | 1011.8 hPa | 0 mm | 2.68 m/s, 95° | - | - |
| 1778041323 | 15.56° C | 75% | 1011.7 hPa | 0 mm | 2.24 m/s, 94° | - | - |
| 1778041263 | 15.56° C | 75% | 1011.7 hPa | 0 mm | 2.24 m/s, 99° | - | - |
| 1778041203 | 15.56° C | 75% | 1011.8 hPa | 0 mm | 2.24 m/s, 90° | - | - |
| 1778041143 | 15° C | 75% | 1011.6 hPa | 0 mm | 2.24 m/s, 88° | - | - |
| 1778041083 | 15.56° C | 75% | 1011.6 hPa | 0 mm | 2.24 m/s, 86° | - | - |
| 1778041023 | 15° C | 75% | 1011.8 hPa | 0 mm | 2.24 m/s, 84° | - | - |
| 1778040963 | 15° C | 75% | 1011.8 hPa | 0 mm | 2.68 m/s, 85° | - | - |
* Rain latest hour (hover to see other rain measurements)
** Current wind speed in m/s (hover to see current wind gust speed)